Lake Charles Regional, LA

1:50 PM CDT on September 24, 2017 (GMT -0500)
Lake Charles Regional

Weather History for KLCH - January, 2013

Change the Weather History Date:

Sunday, January 27, 2013

  Actual Average Record
Temperature  
Mean Temperature 66 °F 52 °F  
Max Temperature 76 °F 62 °F 84 °F (1909)
Min Temperature 55 °F 43 °F 16 °F (1940)
Degree Days  
Heating Degree Days 0 13  
Month to date heating degree days 301 371  
Since 1 July heating degree days 756 945  
Cooling Degree Days 1 0  
Month to date cooling degree days 10 0  
Year to date cooling degree days 10 0  
Growing Degree Days 15 (Base 50)    
Moisture  
Dew Point 58 °F    
Average Humidity 82    
Maximum Humidity 100    
Minimum Humidity 64    
Precipitation  
Precipitation 0.00 in 0.15 in 2.00 in (1995)
Month to date precipitation 11.32 4.60  
Year to date precipitation 11.32 4.60  
Snow  
Snow 0.00 in 0.00 in 0.00 in ()
Month to date snowfall 0.0 0.0  
Since 1 July snowfall 0.0 T  
Snow Depth 0.00 in    
Sea Level Pressure  
Sea Level Pressure 30.18 in    
Wind  
Wind Speed 9 mph (SE)    
Max Wind Speed 21 mph    
Max Gust Speed 28 mph    
Visibility 7 miles    
Events      
T = Trace of Precipitation, MM = Missing Value Source: NWS Daily Summary

Daily Weather History Graph

Daily Weather History Graph

Search for Another Location

Airport or City:

Trip Planner

Search our weather history database for the weather conditions in past years. The results will help you decide how hot, cold, wet, or windy it might be!

Date:

Astronomy

Jan. 27, 2013 Rise Set
Actual Time 7:05 AM CST 5:45 PM CST
Civil Twilight 6:40 AM CST 6:11 PM CST
Nautical Twilight 6:11 AM CST 6:40 PM CST
Astronomical Twilight 5:43 AM CST 7:08 PM CST
Moon 6:32 PM CST (1/27) 7:05 AM CST (1/27)
Length of Visible Light 11h 30m
Length of Day
10h 39m
Full, 100% of the Moon is Illuminated
Jan 27
Full
Feb 3
Last Quarter
Feb 10
New
Feb 17
First Quarter
Feb 25
Full

Hourly Weather History & Observations

Time (CST) Temp. Dew Point Humidity Pressure Visibility Wind Dir Wind Speed Gust Speed Precip Events Conditions
12:03 AM 57.2 °F 55.4 °F 94% 30.19 in 5.0 mi Calm Calm - N/A   Clear
12:32 AM 57.2 °F 55.4 °F 94% 30.18 in 2.5 mi SE 3.5 mph - N/A   Clear
12:40 AM 55.4 °F 55.4 °F 100% 30.18 in 5.0 mi SE 3.5 mph - N/A   Clear
12:46 AM 55.4 °F 55.4 °F 100% 30.18 in 1.8 mi SE 3.5 mph - N/A   Clear
12:53 AM 55.9 °F 55.0 °F 97% 30.20 in 1.2 mi SE 3.5 mph - N/A   Clear
1:04 AM 57.2 °F 55.4 °F 94% 30.18 in 3.0 mi SE 3.5 mph - N/A   Clear
1:43 AM 55.4 °F 53.6 °F 94% 30.18 in 1.8 mi SE 3.5 mph - N/A   Clear
1:49 AM 55.4 °F 53.6 °F 94% 30.18 in 3.0 mi SE 3.5 mph - N/A   Clear
1:50 AM 55.9 °F 54.0 °F 93% 30.20 in 4.0 mi SE 3.5 mph - N/A   Clear
2:53 AM 55.9 °F 54.0 °F 93% 30.19 in 2.5 mi SE 4.6 mph - N/A   Clear
3:02 AM 55.4 °F 55.4 °F 100% 30.17 in 1.8 mi SE 3.5 mph - N/A   Clear
3:06 AM 55.4 °F 55.4 °F 100% 30.17 in 3.0 mi SE 4.6 mph - N/A   Clear
3:53 AM 55.9 °F 54.0 °F 93% 30.18 in 6.0 mi SE 4.6 mph - N/A   Partly Cloudy
4:53 AM 55.9 °F 55.0 °F 97% 30.17 in 7.0 mi SE 4.6 mph - N/A   Clear
5:53 AM 55.4 °F 53.6 °F 94% 30.15 in 9.0 mi ESE 4.6 mph - N/A   Clear
6:53 AM 55.9 °F 54.0 °F 93% 30.19 in 7.0 mi ESE 3.5 mph - N/A   Clear
7:08 AM 55.4 °F 53.6 °F 94% 30.17 in 2.0 mi ESE 3.5 mph - N/A   Clear
7:10 AM 55.4 °F 53.6 °F 94% 30.17 in 4.0 mi ESE 3.5 mph - N/A   Clear
7:53 AM 57.0 °F 55.9 °F 96% 30.20 in 7.0 mi ESE 4.6 mph - N/A   Clear
8:53 AM 64.0 °F 60.1 °F 87% 30.21 in 10.0 mi SE 9.2 mph - N/A   Clear
9:53 AM 70.0 °F 62.1 °F 76% 30.23 in 10.0 mi SSE 15.0 mph - N/A   Scattered Clouds
10:53 AM 73.9 °F 60.1 °F 62% 30.22 in 10.0 mi South 12.7 mph 20.7 mph N/A   Mostly Cloudy
11:53 AM 73.9 °F 60.1 °F 62% 30.22 in 10.0 mi SSE 18.4 mph 24.2 mph N/A   Mostly Cloudy
12:53 PM 73.9 °F 61.0 °F 64% 30.19 in 10.0 mi SSE 15.0 mph 24.2 mph N/A   Overcast
1:53 PM 73.0 °F 61.0 °F 66% 30.17 in 10.0 mi SSE 11.5 mph - N/A   Mostly Cloudy
2:53 PM 73.9 °F 61.0 °F 64% 30.15 in 10.0 mi SSE 15.0 mph 19.6 mph N/A   Mostly Cloudy
3:53 PM 73.0 °F 61.0 °F 66% 30.15 in 10.0 mi SSE 15.0 mph 21.9 mph N/A   Overcast
4:53 PM 72.0 °F 61.0 °F 68% 30.15 in 10.0 mi SSE 10.4 mph 18.4 mph N/A   Overcast
5:53 PM 70.0 °F 62.1 °F 76% 30.15 in 10.0 mi SSE 12.7 mph - N/A   Mostly Cloudy
6:53 PM 68.0 °F 62.1 °F 81% 30.16 in 10.0 mi SE 6.9 mph - N/A   Overcast
7:53 PM 66.9 °F 63.0 °F 87% 30.16 in 10.0 mi SE 8.1 mph - N/A   Mostly Cloudy
8:53 PM 66.0 °F 62.1 °F 87% 30.16 in 10.0 mi SE 9.2 mph - N/A   Mostly Cloudy
9:53 PM 66.0 °F 63.0 °F 90% 30.17 in 10.0 mi SE 6.9 mph - N/A   Overcast
10:53 PM 66.0 °F 63.0 °F 90% 30.17 in 10.0 mi SE 6.9 mph - N/A   Overcast
11:33 PM 66.2 °F 62.6 °F 88% 30.14 in 10.0 mi SE 6.9 mph - N/A   Overcast
11:40 PM 66.2 °F 62.6 °F 88% 30.14 in 10.0 mi SE 8.1 mph - N/A   Overcast
11:53 PM 66.9 °F 64.0 °F 90% 30.16 in 10.0 mi SSE 8.1 mph - N/A   Overcast